User: anonymous   Login
Location: Haulchin
(50.3172°N, 3.4360°E)
Time: 16:23:49
(UTC+00:00)
Language:

IDEFIX/ARIANE 42P - Orbit

View from above orbital plane
View from above orbital plane
View from above satellite
View from above satellite

Ground track
Ground track

The orbit data is extracted from the following two-line orbital elements,

1 27422U 02021B   24206.79045367  .00000759  00000-0  30971-3 0  9991
2 27422  98.5275 143.7259 0012845 129.3525 230.8798 14.30181987159243
Epoch (UTC): 24 July 2024 18:58:15
Eccentricity: 0.0012845
inclination: 98.5275°
perigee height: 782 km
apogee height: 800 km
right ascension of ascending node: 143.7259°
argument of perigee: 129.3525°
revolutions per day: 14.30181987
mean anomaly at epoch: 230.8798°
orbit number at epoch: 15924

The dashed part of the orbit path shows where the satellite is in the earth's shadow,  

DLR